User: anonymous   Login
Location: Unspecified
(0.0000°N, 0.0000°E)
Time: 18:59:13
(UTC+00:00)
Language:

Tancredo 1 - Orbit

View from above orbital plane
View from above orbital plane
View from above satellite
View from above satellite

Ground track
Ground track

The orbit data is extracted from the following two-line orbital elements,

1 41931U 98067KT  17084.89192685 +.00041588 +00000-0 +51649-3 0  9990
2 41931 051.6407 092.0398 0008465 344.1090 015.9709 15.59535750010566
Epoch (UTC): 25 March 2017 21:24:22
Eccentricity: 0.0008465
inclination: 51.6407°
perigee height: 383 km
apogee height: 395 km
right ascension of ascending node: 92.0398°
argument of perigee: 344.1090°
revolutions per day: 15.59535750
mean anomaly at epoch: 15.9709°
orbit number at epoch: 1056

The dashed part of the orbit path shows where the satellite is in the earth's shadow,  

DLR